Home > Weather > Keflavík > Past weeks

Flag for Iceland Past Weather in Keflavík, Iceland — Yesterday and Last 2 Weeks

Now
46 °F

Light rain. Fog.


Feels Like: 38 °F
Forecast: N/A
Wind: 24 mph from South

Location: Keflavikurflugvollur

Current Time: May 27, 2016 at 4:12:58 PM

Latest Report: May 27, 2016 at 4:00 PM


Visibility: 2 mi

Pressure: 29.77 "Hg

Humidity: 93%

Dew Point: 45 °F

Location of KeflavíkLocation

Past Weather in Keflavík — Graph

°F

Keflavík Temperature Yesterday

Maximum temperature yesterday: 46 °F (at 7:00 AM)
Minimum temperature yesterday: 45 °F (at 12:00 AM)
Average temperature yesterday: 46 °F

High & Low Weather Summary for the Past Weeks

 TemperatureHumidityPressure
High52 °F (May 16, 1:30 PM)100% (May 14, 6:00 AM)30.33 "Hg (May 14, 6:00 AM)
Low37 °F (May 18, 12:00 AM)40% (May 20, 2:30 PM)29.65 "Hg (May 20, 1:30 AM)
Average44 °F79%29.96 "Hg
* Reported May 12 3:00 PM — May 27 3:00 PM, Keflavík, Weather by CustomWeather, © 2016

Note: Actual official high and low records may vary slightly from our data, if they occured in-between our weather recording intervals... More about our weather records

Advertising

Keflavík Weather History for the Previous 24 Hours

Scroll right to see more
 ConditionsComfort  
Time TempWeatherWind HumidityBarometerVisibility
3:00 PM
Fri, May 27
46 °FLight rain. Fog.25 mph100%29.77 "Hg2 mi
2:30 PM46 °FLight rain. Fog.28 mph100%29.77 "Hg5 mi
2:00 PM46 °FLight rain. Fog.28 mph93%29.77 "Hg5 mi
1:30 PM46 °FLight rain. Fog.25 mph100%29.77 "Hg5 mi
1:00 PM46 °FLight rain. Fog.28 mph100%29.74 "Hg5 mi
12:30 PM46 °FLight rain. Fog.26 mph93%29.74 "Hg5 mi
12:00 PM46 °FLight rain. Fog.28 mph100%29.74 "Hg5 mi
11:30 AM46 °FRain. Fog.30 mph100%29.74 "Hg3 mi
11:00 AM46 °FLight rain. Fog.26 mph100%29.74 "Hg3 mi
10:30 AM46 °FLight rain. Fog.28 mph100%29.74 "Hg4 mi
10:00 AM46 °FLight rain. Fog.25 mph93%29.74 "Hg4 mi
9:30 AM46 °FLight rain. Mostly cloudy.26 mph93%29.74 "HgN/A
9:00 AM46 °FDrizzle. Mostly cloudy.28 mph93%29.71 "HgN/A
8:30 AM46 °FLight rain. Mostly cloudy.24 mph93%29.71 "HgN/A
8:01 AM46 °FLight rain. Mostly cloudy.28 mph87%29.71 "HgN/A
7:30 AM46 °FDrizzle. Mostly cloudy.25 mph87%29.71 "HgN/A
7:00 AM45 °FMostly cloudy.25 mph100%29.71 "HgN/A
6:30 AM45 °FMostly cloudy.25 mph93%29.71 "HgN/A
6:00 AM45 °FFog.24 mph93%29.71 "Hg5 mi
5:30 AM45 °FFog.24 mph93%29.71 "Hg5 mi
5:00 AM45 °FDrizzle. Mostly cloudy.22 mph100%29.74 "Hg5 mi
4:30 AM45 °FDrizzle. Mostly cloudy.22 mph100%29.74 "Hg5 mi
4:00 AM45 °FDrizzle. Mostly cloudy.23 mph100%29.74 "Hg4 mi
3:30 AM45 °FDrizzle. Fog.18 mph100%29.74 "Hg3 mi
3:00 AM45 °FDrizzle. Mostly cloudy.21 mph100%29.74 "Hg5 mi
2:30 AM45 °FDrizzle. Fog.21 mph100%29.74 "Hg3 mi
2:00 AM45 °FLight rain. Low clouds.23 mph100%29.77 "Hg5 mi
1:30 AM45 °FLight rain. Low clouds.23 mph100%29.74 "Hg5 mi
1:00 AM45 °FLight rain. Mostly cloudy.22 mph100%29.77 "Hg4 mi
12:30 AM45 °FLight rain. Mostly cloudy.20 mph100%29.77 "Hg4 mi
12:00 AM46 °FRain. Mostly cloudy.21 mph100%29.77 "Hg4 mi
11:30 PM
Thu, May 26
46 °FLight rain. Passing clouds.20 mph100%29.77 "HgN/A
11:00 PM46 °FLight rain. Broken clouds.16 mph100%29.80 "Hg5 mi
10:30 PM45 °FLight rain. Partly sunny.17 mph100%29.80 "Hg5 mi
10:00 PM45 °FLight rain. Partly sunny.20 mph100%29.80 "Hg5 mi
9:30 PM46 °FLight rain. Broken clouds.20 mph93%29.80 "HgN/A
9:00 PM46 °FLight rain. Cloudy.20 mph100%29.83 "HgN/A
8:31 PM46 °FLight rain. Cloudy.17 mph100%29.80 "Hg5 mi
8:00 PM46 °FLight rain. Broken clouds.18 mph100%29.80 "Hg5 mi
7:30 PM46 °FDrizzle. Cloudy.20 mph100%29.83 "Hg2 mi
7:00 PM46 °FDrizzle. More clouds than sun.20 mph100%29.83 "Hg2 mi
6:30 PM46 °FDrizzle. Mostly cloudy.21 mph100%29.83 "Hg5 mi
6:00 PM46 °FScattered showers. Mostly cloudy.20 mph93%29.83 "HgN/A
5:31 PM46 °FDrizzle. Mostly cloudy.20 mph100%29.83 "HgN/A
5:01 PM46 °FDrizzle. Mostly cloudy.18 mph100%29.83 "HgN/A
4:30 PM46 °FDrizzle. Fog.20 mph100%29.83 "Hg1 mi
4:00 PM46 °FDrizzle. Fog.21 mph100%29.83 "Hg1 mi
Weather by CustomWeather, © 2016

See weather overviewHow to use our weather pages